Powrót do katalogu

O3B FM2

AktywnyŁącznośćMEO
NORAD 39190·PAYLOAD·🇱🇺 Luxembourg

Wystrzelony Jun 25, 2013 z Guiana Space Centre

Loading…

Następne Przeloty (najbliższe 24 godziny)

TLE

ŚwieżeSource: CelesTrak SupGP

Epoka: Sep 13, 2026, 22:59 UTC

1 39190C 13031C   26256.95833333  .00000000  00000+0  00000+0 0  2562
2 39190   0.0350 359.9604 0002619 169.1423 158.6885  5.00116244    17

Śledź O3B FM2 w czasie rzeczywistym z AllMySat

Download on the App Store